SM5FGQ-2 Weather Reports


Display with metric or nautical units.
time (UTC)temp
F
wind
direction
speed
MPH
gust
MPH
rain 1hr
in
rain 24hr
in
rain mn
in
humidity
%
barometer
mb
20260506033036 26 270 1.0 3.0 0.00 0.02 0.00 80 1009.0
20260506030047 26 270 1.0 3.0 0.00 0.02 0.00 80 1008.9
20260506023016 26 270 1.0 2.0 0.00 0.02 0.00 78 1008.7
20260506020106 27 270 1.0 3.0 0.00 0.02 0.00 77 1008.5
20260506013057 27 270 0.0 2.0 0.00 0.02 0.00 75 1008.4
20260506010047 27 270 1.0 2.0 0.00 0.02 0.00 72 1008.1
20260506003038 28 270 1.0 2.0 0.00 0.02 0.00 70 1008.0
20260506000028 28 270 1.0 3.0 0.00 0.02 0.00 69 1008.0
20260505233018 30 270 1.0 3.0 0.00 0.02 0.00 66 1007.9
20260505230110 31 270 1.0 3.0 0.00 0.02 0.00 63 1007.8
20260505223058 32 270 1.0 3.0 0.00 0.02 0.00 61 1007.7
20260505220049 33 270 1.0 2.0 0.00 0.02 0.00 60 1007.6
20260505213040 35 270 0.0 2.0 0.00 0.02 0.02 58 1007.4
20260505210051 36 270 1.0 2.0 0.00 0.02 0.02 55 1007.2
20260505203019 39 270 1.0 3.0 0.00 0.02 0.02 54 1007.1
20260505200111 41 270 1.0 3.0 0.00 0.02 0.02 52 1006.8
20260505193100 43 281 1.0 3.0 0.00 0.02 0.02 48 1006.5
20260505190049 48 286 1.0 5.0 0.00 0.02 0.02 34 1006.2
20260505183043 50 278 3.0 6.0 0.00 0.02 0.02 32 1005.9
20260505180112 52 270 4.0 8.0 0.00 0.02 0.02 31 1005.8
20260505173043 53 270 5.0 11.0 0.00 0.02 0.02 31 1005.6
20260505170112 55 269 5.0 12.0 0.00 0.02 0.02 30 1005.5
20260505163101 54 266 6.0 15.0 0.00 0.02 0.02 30 1005.4
20260505153043 55 280 7.0 16.0 0.00 0.02 0.02 28 1005.4
20260505140112 55 266 7.0 18.0 0.00 0.02 0.02 29 1005.3
20260505123103 54 256 6.0 14.0 0.00 0.02 0.02 31 1005.2
20260505120032 54 233 7.0 19.0 0.00 0.02 0.02 33 1005.1
20260505113021 53 253 6.0 14.0 0.00 0.02 0.02 36 1005.0
20260505110112 53 247 6.0 13.0 0.00 0.02 0.02 37 1004.8
20260505100114 52 268 6.0 13.0 0.00 0.02 0.02 42 1004.6
20260505093042 51 288 8.0 17.0 0.00 0.02 0.02 42 1004.5
20260505090032 52 259 6.0 13.0 0.00 0.02 0.02 41 1004.3
20260505083022 52 270 8.0 16.0 0.00 0.02 0.02 41 1004.1
20260505080132 54 260 8.0 16.0 0.00 0.02 0.02 39 1004.0
20260505073102 59 255 6.0 12.0 0.02 0.02 0.02 37 1003.7
20260505070053 59 262 7.0 13.0 0.02 0.03 0.02 37 1003.5
20260505063042 54 260 6.0 11.0 0.00 0.01 0.00 47 1003.4
20260505060034 48 287 5.0 11.0 0.00 0.01 0.00 61 1003.2
20260505053023 47 254 4.0 9.0 0.00 0.02 0.00 73 1003.0
20260505050115 46 244 3.0 8.0 0.00 0.03 0.00 76 1002.8
20260505040053 45 264 4.0 12.0 0.00 0.09 0.00 76 1002.2